| time (UTC) | temp F | wind direction | speed knots | gust knots | rain 1hr in | rain 24hr in | rain mn in | humidity % | barometer mb |
| 20260508102208 | 66 | 123 | 3.5 | 5.2 | 0.00 | 0.00 | 0.00 | 84 | 1010.9 |
| 20260508101808 | 65 | 119 | 1.7 | 3.5 | 0.00 | 0.00 | 0.00 | 85 | 1011.1 |
| 20260508101338 | 65 | 100 | 1.7 | 5.2 | 0.00 | 0.00 | 0.00 | 86 | 1011.2 |
| 20260508100908 | 64 | 139 | 2.6 | 4.3 | 0.00 | 0.00 | 0.00 | 85 | 1011.4 |
| 20260508100503 | 63 | 112 | 0.9 | 4.3 | 0.00 | 0.00 | 0.00 | 86 | 1011.5 |
| 20260508100032 | 63 | 99 | 2.6 | 3.5 | 0.00 | 0.00 | 0.00 | 86 | 1011.3 |
| 20260508095558 | 63 | 109 | 1.7 | 3.5 | 0.00 | 0.00 | 0.00 | 86 | 1011.3 |
| 20260508095102 | 63 | 107 | 2.6 | 3.5 | 0.00 | 0.00 | 0.00 | 85 | 1011.1 |
| 20260508094613 | 64 | 75 | 1.7 | 3.5 | 0.00 | 0.00 | 0.00 | 84 | 1011.4 |
| 20260508094149 | 64 | 84 | 1.7 | 4.3 | 0.00 | 0.00 | 0.00 | 83 | 1011.3 |
| 20260508093732 | 64 | 126 | 1.7 | 5.2 | 0.00 | 0.00 | 0.00 | 82 | 1011.3 |
| 20260508093322 | 64 | 135 | 0.9 | 2.6 | 0.00 | 0.00 | 0.00 | 81 | 1011.2 |
| 20260508092852 | 64 | 99 | 1.7 | 1.7 | 0.00 | 0.00 | 0.00 | 81 | 1011.1 |
| 20260508092427 | 64 | 60 | 1.7 | 3.5 | 0.00 | 0.00 | 0.00 | 81 | 1011.0 |
| 20260508092007 | 65 | 77 | 3.5 | 4.3 | 0.00 | 0.00 | 0.00 | 80 | 1011.1 |
| 20260508091607 | 65 | 122 | 0.9 | 1.7 | 0.00 | 0.00 | 0.00 | 79 | 1011.1 |
| 20260508091117 | 66 | 91 | 1.7 | 2.6 | 0.00 | 0.00 | 0.00 | 79 | 1011.0 |
| 20260508090627 | 65 | 97 | 0.0 | 3.5 | 0.00 | 0.00 | 0.00 | 80 | 1011.0 |
| 20260508090219 | 65 | 45 | 1.7 | 2.6 | 0.00 | 0.00 | 0.00 | 80 | 1011.2 |
| 20260508085752 | 66 | 104 | 1.7 | 3.5 | 0.00 | 0.00 | 0.00 | 78 | 1011.1 |
| 20260508085348 | 65 | 90 | 1.7 | 5.2 | 0.00 | 0.00 | 0.00 | 81 | 1011.0 |
| 20260508084922 | 65 | 71 | 0.0 | 5.2 | 0.00 | 0.00 | 0.00 | 81 | 1010.8 |
| 20260508084442 | 64 | 95 | 3.5 | 5.2 | 0.00 | 0.00 | 0.00 | 81 | 1010.8 |
| 20260508084042 | 65 | 124 | 0.9 | 3.5 | 0.00 | 0.00 | 0.00 | 80 | 1011.0 |
| 20260508083637 | 65 | 134 | 3.5 | 4.3 | 0.00 | 0.00 | 0.00 | 79 | 1011.0 |
| 20260508083142 | 65 | 118 | 0.9 | 4.3 | 0.00 | 0.00 | 0.00 | 79 | 1010.9 |
| 20260508082647 | 65 | 86 | 1.7 | 1.7 | 0.00 | 0.00 | 0.00 | 78 | 1010.8 |
| 20260508082218 | 65 | 109 | 1.7 | 3.5 | 0.00 | 0.00 | 0.00 | 78 | 1010.8 |
| 20260508081737 | 64 | 97 | 0.9 | 3.5 | 0.00 | 0.00 | 0.00 | 77 | 1010.7 |
| 20260508081322 | 65 | 96 | 0.0 | 2.6 | 0.00 | 0.00 | 0.00 | 76 | 1010.8 |
| 20260508080847 | 66 | 122 | 0.0 | 3.5 | 0.00 | 0.00 | 0.00 | 75 | 1010.8 |
| 20260508080447 | 66 | 81 | 3.5 | 4.3 | 0.00 | 0.00 | 0.00 | 74 | 1010.7 |
| 20260508080002 | 66 | 90 | 0.0 | 2.6 | 0.00 | 0.00 | 0.00 | 74 | 1010.9 |
| 20260508075537 | 65 | 96 | 0.0 | 3.5 | 0.00 | 0.00 | 0.00 | 75 | 1010.6 |
| 20260508075122 | 66 | 57 | 1.7 | 2.6 | 0.00 | 0.00 | 0.00 | 76 | 1010.8 |
| 20260508074722 | 66 | 112 | 0.9 | 3.5 | 0.00 | 0.00 | 0.00 | 77 | 1010.6 |
| 20260508074242 | 65 | 53 | 1.7 | 4.3 | 0.00 | 0.00 | 0.00 | 78 | 1010.6 |
| 20260508073837 | 65 | 142 | 1.7 | 2.6 | 0.00 | 0.00 | 0.00 | 79 | 1010.6 |
| 20260508073412 | 65 | 81 | 0.9 | 2.6 | 0.00 | 0.00 | 0.00 | 80 | 1010.7 |
| 20260508072932 | 65 | 93 | 1.7 | 3.5 | 0.00 | 0.00 | 0.00 | 80 | 1010.3 |
| 20260508072457 | 64 | 48 | 0.9 | 4.3 | 0.00 | 0.00 | 0.00 | 82 | 1010.6 |
| 20260508072057 | 64 | 94 | 0.9 | 3.5 | 0.00 | 0.00 | 0.00 | 82 | 1010.6 |
| 20260508071648 | 64 | 85 | 0.0 | 1.7 | 0.00 | 0.00 | 0.00 | 81 | 1010.7 |
| 20260508071229 | 64 | 103 | 0.0 | 1.7 | 0.00 | 0.00 | 0.00 | 81 | 1010.9 |
| 20260508070822 | 64 | 117 | 0.0 | 2.6 | 0.00 | 0.00 | 0.00 | 80 | 1010.8 |
| 20260508070347 | 64 | 99 | 0.9 | 2.6 | 0.00 | 0.00 | 0.00 | 79 | 1011.0 |
| 20260508065847 | 65 | 90 | 1.7 | 2.6 | 0.00 | 0.00 | 0.00 | 77 | 1011.0 |
| 20260508065407 | 64 | 89 | 0.0 | 2.6 | 0.00 | 0.00 | 0.00 | 78 | 1010.9 |
| 20260508064907 | 65 | 92 | 1.7 | 2.6 | 0.00 | 0.00 | 0.00 | 78 | 1010.8 |
| 20260508064452 | 64 | 106 | 0.9 | 3.5 | 0.00 | 0.00 | 0.00 | 80 | 1010.8 |
| 20260508064022 | 63 | 77 | 1.7 | 2.6 | 0.00 | 0.00 | 0.00 | 81 | 1010.3 |
| 20260508063617 | 63 | 103 | 0.9 | 3.5 | 0.00 | 0.00 | 0.00 | 82 | 1010.1 |
| 20260508063148 | 63 | 124 | 1.7 | 2.6 | 0.00 | 0.00 | 0.00 | 81 | 1010.3 |
| 20260508062707 | 63 | 103 | 1.7 | 3.5 | 0.00 | 0.00 | 0.00 | 82 | 1010.2 |
| 20260508062227 | 63 | 119 | 2.6 | 3.5 | 0.00 | 0.00 | 0.00 | 81 | 1010.3 |
| 20260508061748 | 63 | 95 | 3.5 | 4.3 | 0.00 | 0.00 | 0.00 | 82 | 1010.2 |
| 20260508061323 | 62 | 77 | 0.9 | 2.6 | 0.00 | 0.00 | 0.00 | 82 | 1010.3 |
| 20260508060854 | 62 | 106 | 0.0 | 2.6 | 0.00 | 0.00 | 0.00 | 82 | 1010.3 |
| 20260508060442 | 62 | 87 | 1.7 | 3.5 | 0.00 | 0.00 | 0.00 | 83 | 1010.3 |
| 20260508060033 | 62 | 93 | 0.0 | 0.0 | 0.00 | 0.00 | 0.00 | 83 | 1010.1 |
| 20260508055602 | 62 | 123 | 0.9 | 1.7 | 0.00 | 0.00 | 0.00 | 83 | 1010.0 |
| 20260508055158 | 61 | 97 | 0.0 | 3.5 | 0.00 | 0.00 | 0.00 | 83 | 1010.2 |
| 20260508054718 | 61 | 100 | 2.6 | 3.5 | 0.00 | 0.00 | 0.00 | 83 | 1010.0 |
| 20260508054230 | 61 | 102 | 0.0 | 0.9 | 0.00 | 0.00 | 0.00 | 84 | 1010.1 |
| 20260508053807 | 61 | 118 | 1.7 | 3.5 | 0.00 | 0.00 | 0.00 | 84 | 1009.9 |
| 20260508053332 | 61 | 96 | 0.0 | 0.9 | 0.00 | 0.00 | 0.00 | 85 | 1009.8 |
| 20260508052918 | 60 | 101 | 0.0 | 1.7 | 0.00 | 0.00 | 0.00 | 85 | 1009.5 |
| 20260508052447 | 60 | 101 | 0.0 | 2.6 | 0.00 | 0.00 | 0.00 | 86 | 1009.5 |
| 20260508052012 | 60 | 94 | 0.0 | 0.9 | 0.00 | 0.00 | 0.00 | 86 | 1009.5 |
| 20260508051547 | 60 | 98 | 0.0 | 2.6 | 0.00 | 0.00 | 0.00 | 86 | 1009.3 |
| 20260508050652 | 60 | 93 | 0.0 | 2.6 | 0.00 | 0.00 | 0.00 | 87 | 1009.5 |
| 20260508050238 | 61 | 91 | 0.0 | 0.0 | 0.00 | 0.00 | 0.00 | 88 | 1009.3 |
| 20260508045737 | 61 | 81 | 1.7 | 2.6 | 0.00 | 0.00 | 0.00 | 88 | 1009.5 |
| 20260508045237 | 61 | 96 | 0.0 | 0.9 | 0.00 | 0.00 | 0.00 | 88 | 1009.6 |
| 20260508044827 | 61 | 81 | 1.7 | 3.5 | 0.00 | 0.00 | 0.00 | 88 | 1009.5 |
| 20260508044339 | 61 | 63 | 1.7 | 4.3 | 0.00 | 0.00 | 0.00 | 88 | 1009.5 |
| 20260508043903 | 61 | 88 | 1.7 | 3.5 | 0.00 | 0.00 | 0.00 | 88 | 1009.5 |
| 20260508043427 | 61 | 52 | 0.9 | 2.6 | 0.00 | 0.00 | 0.00 | 89 | 1009.3 |
| 20260508043008 | 61 | 88 | 0.9 | 3.5 | 0.00 | 0.00 | 0.00 | 89 | 1009.5 |
| 20260508042557 | 61 | 101 | 0.9 | 3.5 | 0.00 | 0.00 | 0.00 | 89 | 1009.5 |
| 20260508042142 | 61 | 59 | 1.7 | 3.5 | 0.00 | 0.00 | 0.00 | 89 | 1009.5 |
| 20260508041648 | 61 | 78 | 0.9 | 2.6 | 0.00 | 0.00 | 0.00 | 89 | 1009.4 |
| 20260508041152 | 61 | 87 | 0.9 | 3.5 | 0.00 | 0.00 | 0.00 | 89 | 1009.5 |
| 20260508040747 | 61 | 88 | 2.6 | 4.3 | 0.00 | 0.00 | 0.00 | 89 | 1009.7 |
| 20260508040330 | 61 | 67 | 0.0 | 2.6 | 0.00 | 0.00 | 0.00 | 89 | 1009.8 |
| 20260508035852 | 61 | 102 | 0.0 | 1.7 | 0.00 | 0.00 | 0.00 | 89 | 1009.8 |
| 20260508035422 | 61 | 97 | 0.9 | 3.5 | 0.00 | 0.00 | 0.00 | 89 | 1009.7 |
| 20260508035012 | 61 | 85 | 0.9 | 4.3 | 0.00 | 0.00 | 0.00 | 89 | 1009.8 |
| 20260508034516 | 61 | 90 | 1.7 | 2.6 | 0.00 | 0.00 | 0.00 | 89 | 1009.9 |
| 20260508034107 | 61 | 87 | 2.6 | 3.5 | 0.00 | 0.00 | 0.00 | 88 | 1009.8 |
| 20260508033637 | 62 | 114 | 2.6 | 3.5 | 0.00 | 0.00 | 0.00 | 88 | 1009.7 |
| 20260508033207 | 62 | 79 | 0.0 | 2.6 | 0.00 | 0.00 | 0.00 | 88 | 1009.6 |
| 20260508032757 | 62 | 95 | 0.0 | 2.6 | 0.00 | 0.00 | 0.00 | 88 | 1009.7 |
| 20260508032347 | 62 | 124 | 3.5 | 3.5 | 0.00 | 0.00 | 0.00 | 87 | 1009.9 |
| 20260508031936 | 61 | 110 | 0.0 | 1.7 | 0.00 | 0.00 | 0.00 | 86 | 1009.7 |
| 20260508031503 | 61 | 102 | 0.9 | 2.6 | 0.00 | 0.00 | 0.00 | 86 | 1009.7 |
| 20260508031058 | 61 | 107 | 0.0 | 0.0 | 0.00 | 0.00 | 0.00 | 86 | 1009.6 |
| 20260508030602 | 61 | 99 | 1.7 | 2.6 | 0.00 | 0.00 | 0.00 | 86 | 1009.6 |
| 20260508030147 | 61 | 74 | 0.0 | 0.9 | 0.00 | 0.00 | 0.00 | 87 | 1009.6 |
| 20260508025702 | 61 | 85 | 0.0 | 0.9 | 0.00 | 0.00 | 0.00 | 87 | 1009.4 |
| 20260508025222 | 61 | 120 | 0.9 | 1.7 | 0.00 | 0.00 | 0.00 | 87 | 1009.5 |
| 20260508024812 | 61 | 85 | 0.9 | 1.7 | 0.00 | 0.00 | 0.00 | 87 | 1009.6 |
| 20260508024323 | 61 | 112 | 0.9 | 3.5 | 0.00 | 0.00 | 0.00 | 87 | 1009.7 |
| 20260508023842 | 61 | 127 | 1.7 | 4.3 | 0.00 | 0.00 | 0.00 | 88 | 1009.6 |
| 20260508023433 | 61 | 99 | 0.0 | 1.7 | 0.00 | 0.00 | 0.00 | 88 | 1009.6 |
| 20260508022932 | 61 | 119 | 1.7 | 2.6 | 0.00 | 0.00 | 0.00 | 88 | 1009.6 |
| 20260508022523 | 61 | 128 | 3.5 | 4.3 | 0.00 | 0.00 | 0.00 | 88 | 1009.7 |
| 20260508022033 | 61 | 102 | 1.7 | 3.5 | 0.00 | 0.00 | 0.00 | 88 | 1009.7 |
| 20260508021543 | 61 | 140 | 3.5 | 3.5 | 0.00 | 0.00 | 0.00 | 88 | 1009.6 |
| 20260508021112 | 61 | 74 | 0.9 | 5.2 | 0.00 | 0.00 | 0.00 | 88 | 1009.7 |
| 20260508020702 | 61 | 97 | 1.7 | 3.5 | 0.00 | 0.00 | 0.00 | 88 | 1009.5 |
| 20260508020243 | 61 | 84 | 1.7 | 8.7 | 0.00 | 0.00 | 0.00 | 87 | 1009.9 |
| 20260508015843 | 61 | 140 | 3.5 | 7.0 | 0.00 | 0.00 | 0.00 | 87 | 1009.6 |
| 20260508015421 | 61 | 127 | 5.2 | 7.8 | 0.00 | 0.00 | 0.00 | 87 | 1009.6 |
| 20260508015003 | 62 | 113 | 0.0 | 5.2 | 0.00 | 0.00 | 0.00 | 87 | 1009.6 |
| 20260508014558 | 62 | 102 | 0.9 | 3.5 | 0.00 | 0.00 | 0.00 | 87 | 1009.4 |
| 20260508014153 | 62 | 98 | 0.9 | 1.7 | 0.00 | 0.00 | 0.00 | 87 | 1009.5 |
| 20260508013718 | 62 | 128 | 0.0 | 1.7 | 0.00 | 0.00 | 0.00 | 87 | 1009.6 |
| 20260508013252 | 61 | 78 | 1.7 | 5.2 | 0.00 | 0.00 | 0.00 | 87 | 1009.6 |
| 20260508012757 | 61 | 89 | 4.3 | 7.0 | 0.00 | 0.00 | 0.00 | 87 | 1009.5 |
| 20260508012333 | 61 | 102 | 1.7 | 4.3 | 0.00 | 0.00 | 0.00 | 87 | 1009.5 |
| 20260508011858 | 61 | 113 | 1.7 | 2.6 | 0.00 | 0.00 | 0.00 | 87 | 1009.5 |
| 20260508011458 | 61 | 94 | 0.0 | 0.9 | 0.00 | 0.00 | 0.00 | 87 | 1009.6 |
| 20260508011042 | 61 | 62 | 0.9 | 2.6 | 0.00 | 0.00 | 0.00 | 87 | 1009.8 |
| 20260508010638 | 61 | 76 | 0.9 | 1.7 | 0.00 | 0.00 | 0.00 | 87 | 1009.6 |
| 20260508010143 | 61 | 75 | 0.0 | 0.9 | 0.00 | 0.00 | 0.00 | 87 | 1009.8 |
| 20260508005704 | 61 | 104 | 0.0 | 0.9 | 0.00 | 0.00 | 0.00 | 87 | 1009.6 |
| 20260508005244 | 61 | 88 | 0.0 | 0.9 | 0.00 | 0.00 | 0.00 | 87 | 1009.7 |
| 20260508004744 | 62 | 91 | 0.9 | 1.7 | 0.00 | 0.00 | 0.00 | 86 | 1009.8 |
| 20260508004254 | 62 | 95 | 0.0 | 1.7 | 0.00 | 0.00 | 0.00 | 86 | 1009.7 |
| 20260508003804 | 62 | 351 | 1.7 | 1.7 | 0.00 | 0.00 | 0.00 | 86 | 1009.8 |
| 20260508003319 | 61 | 81 | 0.9 | 1.7 | 0.00 | 0.00 | 0.00 | 85 | 1010.0 |
| 20260508002834 | 61 | 69 | 0.9 | 1.7 | 0.00 | 0.00 | 0.00 | 85 | 1009.6 |
| 20260508002339 | 61 | 15 | 0.9 | 2.6 | 0.00 | 0.00 | 0.00 | 85 | 1010.0 |
| 20260508001924 | 61 | 89 | 0.9 | 2.6 | 0.00 | 0.00 | 0.00 | 85 | 1009.8 |
| 20260508001454 | 61 | 339 | 0.9 | 1.7 | 0.00 | 0.00 | 0.00 | 85 | 1009.7 |
| 20260508000959 | 61 | 357 | 3.5 | 4.3 | 0.00 | 0.00 | 0.00 | 85 | 1009.9 |
| 20260508000503 | 61 | 18 | 0.9 | 1.7 | 0.00 | 0.00 | 0.00 | 85 | 1009.9 |
| 20260508000019 | 61 | 49 | 0.9 | 1.7 | 0.00 | 0.00 | 0.00 | 85 | 1010.0 |
| 20260507235534 | 61 | 60 | 1.7 | 2.6 | 0.00 | 0.00 | 0.00 | 85 | 1010.2 |
| 20260507235039 | 61 | 95 | 1.7 | 5.2 | 0.00 | 0.00 | 0.00 | 86 | 1010.4 |
| 20260507234549 | 61 | 71 | 0.9 | 2.6 | 0.00 | 0.00 | 0.00 | 86 | 1010.0 |
| 20260507234110 | 61 | 85 | 1.7 | 5.2 | 0.00 | 0.00 | 0.00 | 86 | 1010.3 |
| 20260507233704 | 61 | 336 | 2.6 | 5.2 | 0.00 | 0.00 | 0.00 | 86 | 1010.1 |
| 20260507233244 | 62 | 308 | 1.7 | 2.6 | 0.00 | 0.00 | 0.00 | 86 | 1010.3 |
| 20260507232827 | 62 | 85 | 0.0 | 0.9 | 0.00 | 0.00 | 0.00 | 86 | 1010.3 |
| 20260507232350 | 62 | 82 | 0.0 | 1.7 | 0.00 | 0.00 | 0.00 | 86 | 1010.1 |
| 20260507231949 | 61 | 83 | 0.9 | 1.7 | 0.00 | 0.00 | 0.00 | 86 | 1010.2 |
| 20260507231519 | 62 | 35 | 0.9 | 1.7 | 0.00 | 0.00 | 0.00 | 86 | 1010.4 |
| 20260507231029 | 62 | 70 | 0.0 | 0.0 | 0.00 | 0.00 | 0.00 | 86 | 1010.2 |
| 20260507230619 | 62 | 97 | 0.0 | 0.0 | 0.00 | 0.00 | 0.00 | 86 | 1010.3 |
| 20260507230119 | 62 | 98 | 0.0 | 0.0 | 0.00 | 0.00 | 0.00 | 85 | 1010.6 |
| 20260507225654 | 62 | 94 | 0.0 | 0.0 | 0.00 | 0.00 | 0.00 | 85 | 1010.7 |
| 20260507225214 | 62 | 80 | 0.0 | 0.0 | 0.00 | 0.00 | 0.00 | 85 | 1010.4 |
| 20260507224810 | 62 | 101 | 0.0 | 0.0 | 0.00 | 0.00 | 0.00 | 85 | 1010.4 |
| 20260507224350 | 62 | 95 | 0.0 | 1.7 | 0.00 | 0.00 | 0.00 | 85 | 1010.4 |
| 20260507223929 | 62 | 104 | 0.0 | 1.7 | 0.00 | 0.00 | 0.00 | 85 | 1010.7 |
| 20260507223454 | 62 | 103 | 1.7 | 2.6 | 0.00 | 0.00 | 0.00 | 86 | 1010.6 |
| 20260507223009 | 62 | 119 | 0.0 | 1.7 | 0.00 | 0.00 | 0.00 | 86 | 1010.7 |
| 20260507222534 | 63 | 112 | 0.9 | 2.6 | 0.00 | 0.00 | 0.00 | 86 | 1010.7 |
| 20260507222104 | 63 | 106 | 0.0 | 0.9 | 0.00 | 0.00 | 0.00 | 87 | 1010.6 |
| 20260507221659 | 63 | 161 | 0.9 | 1.7 | 0.00 | 0.00 | 0.00 | 87 | 1010.6 |
| 20260507221304 | 63 | 129 | 1.7 | 2.6 | 0.00 | 0.00 | 0.00 | 87 | 1010.6 |
| 20260507220819 | 63 | 109 | 0.0 | 2.6 | 0.00 | 0.00 | 0.00 | 86 | 1010.8 |
| 20260507220344 | 63 | 136 | 3.5 | 4.3 | 0.00 | 0.00 | 0.00 | 86 | 1010.8 |
| 20260507215439 | 63 | 104 | 0.0 | 4.3 | 0.00 | 0.00 | 0.00 | 86 | 1010.8 |
| 20260507215001 | 63 | 97 | 0.0 | 3.5 | 0.00 | 0.00 | 0.00 | 86 | 1010.4 |
| 20260507214514 | 63 | 125 | 1.7 | 3.5 | 0.00 | 0.00 | 0.00 | 86 | 1010.4 |
| 20260507214104 | 63 | 110 | 1.7 | 3.5 | 0.00 | 0.00 | 0.00 | 85 | 1010.3 |
| 20260507213629 | 63 | 120 | 1.7 | 2.6 | 0.00 | 0.00 | 0.00 | 85 | 1010.1 |
| 20260507213201 | 63 | 103 | 1.7 | 2.6 | 0.00 | 0.00 | 0.00 | 84 | 1010.2 |
| 20260507212739 | 63 | 100 | 0.0 | 0.9 | 0.00 | 0.00 | 0.00 | 84 | 1010.3 |
| 20260507212239 | 63 | 107 | 0.0 | 3.5 | 0.00 | 0.00 | 0.00 | 83 | 1010.3 |
| 20260507211815 | 63 | 134 | 1.7 | 2.6 | 0.00 | 0.00 | 0.00 | 83 | 1010.1 |
| 20260507211404 | 63 | 97 | 0.0 | 2.6 | 0.00 | 0.00 | 0.00 | 82 | 1010.2 |
| 20260507210914 | 63 | 99 | 0.9 | 3.5 | 0.00 | 0.00 | 0.00 | 82 | 1009.9 |
| 20260507210414 | 63 | 110 | 0.0 | 1.7 | 0.00 | 0.00 | 0.00 | 80 | 1009.8 |
| 20260507205919 | 63 | 73 | 0.0 | 0.9 | 0.00 | 0.00 | 0.00 | 79 | 1009.8 |
| 20260507205459 | 63 | 88 | 0.0 | 0.9 | 0.00 | 0.00 | 0.00 | 79 | 1009.9 |
| 20260507205019 | 63 | 90 | 2.6 | 3.5 | 0.00 | 0.00 | 0.00 | 79 | 1009.9 |
| 20260507204601 | 62 | 95 | 0.0 | 2.6 | 0.00 | 0.00 | 0.00 | 81 | 1010.0 |
| 20260507204124 | 62 | 64 | 0.0 | 2.6 | 0.00 | 0.00 | 0.00 | 83 | 1009.8 |
| 20260507203640 | 63 | 95 | 0.0 | 0.9 | 0.00 | 0.00 | 0.00 | 84 | 1009.7 |
| 20260507203236 | 63 | 95 | 0.0 | 1.7 | 0.00 | 0.00 | 0.00 | 84 | 1009.5 |
| 20260507202834 | 63 | 94 | 0.0 | 0.9 | 0.00 | 0.00 | 0.00 | 84 | 1009.5 |
| 20260507202404 | 63 | 93 | 0.0 | 0.0 | 0.00 | 0.00 | 0.00 | 84 | 1009.7 |
| 20260507201904 | 63 | 98 | 0.0 | 0.9 | 0.00 | 0.00 | 0.00 | 84 | 1009.6 |
| 20260507201429 | 63 | 92 | 0.0 | 1.7 | 0.00 | 0.00 | 0.00 | 84 | 1009.7 |
| 20260507201019 | 63 | 93 | 0.0 | 0.9 | 0.00 | 0.00 | 0.00 | 84 | 1009.6 |
| 20260507200609 | 63 | 129 | 0.9 | 1.7 | 0.00 | 0.00 | 0.00 | 84 | 1009.6 |
| 20260507200119 | 63 | 127 | 0.9 | 2.6 | 0.00 | 0.00 | 0.00 | 84 | 1009.6 |
| 20260507195647 | 63 | 111 | 0.9 | 1.7 | 0.00 | 0.00 | 0.00 | 83 | 1009.4 |
| 20260507195214 | 63 | 114 | 0.9 | 2.6 | 0.00 | 0.00 | 0.00 | 84 | 1009.4 |
| 20260507194749 | 63 | 93 | 1.7 | 2.6 | 0.00 | 0.00 | 0.00 | 83 | 1009.3 |
| 20260507194309 | 63 | 81 | 1.7 | 1.7 | 0.00 | 0.00 | 0.00 | 82 | 1009.5 |
| 20260507193824 | 63 | 113 | 1.7 | 2.6 | 0.00 | 0.00 | 0.00 | 82 | 1009.5 |
| 20260507193359 | 63 | 118 | 2.6 | 3.5 | 0.00 | 0.00 | 0.00 | 81 | 1009.4 |
| 20260507192859 | 63 | 127 | 1.7 | 2.6 | 0.00 | 0.00 | 0.00 | 81 | 1009.2 |
| 20260507192439 | 63 | 62 | 0.9 | 1.7 | 0.00 | 0.00 | 0.00 | 81 | 1009.1 |
| 20260507191944 | 63 | 133 | 2.6 | 3.5 | 0.00 | 0.00 | 0.00 | 81 | 1009.1 |
| 20260507191513 | 63 | 67 | 1.7 | 2.6 | 0.00 | 0.00 | 0.00 | 81 | 1009.0 |
| 20260507191059 | 64 | 92 | 1.7 | 3.5 | 0.00 | 0.00 | 0.00 | 80 | 1009.2 |
| 20260507190619 | 64 | 95 | 0.0 | 2.6 | 0.00 | 0.00 | 0.00 | 80 | 1008.9 |
| 20260507190144 | 64 | 124 | 1.7 | 4.3 | 0.00 | 0.00 | 0.00 | 79 | 1008.9 |
| 20260507185649 | 64 | 116 | 1.7 | 3.5 | 0.00 | 0.00 | 0.00 | 78 | 1008.8 |
| 20260507185200 | 64 | 145 | 1.7 | 2.6 | 0.00 | 0.00 | 0.00 | 77 | 1008.8 |
| 20260507184739 | 64 | 126 | 3.5 | 5.2 | 0.00 | 0.00 | 0.00 | 77 | 1008.8 |
| 20260507184309 | 64 | 147 | 1.7 | 7.0 | 0.00 | 0.00 | 0.00 | 76 | 1008.9 |
| 20260507183904 | 64 | 111 | 0.9 | 7.0 | 0.00 | 0.00 | 0.00 | 75 | 1008.8 |
| 20260507183415 | 64 | 102 | 1.7 | 5.2 | 0.00 | 0.00 | 0.00 | 74 | 1009.0 |
| 20260507182929 | 65 | 167 | 1.7 | 3.5 | 0.00 | 0.00 | 0.00 | 72 | 1008.8 |
| 20260507182529 | 64 | 171 | 1.7 | 5.2 | 0.00 | 0.00 | 0.00 | 72 | 1008.6 |
| 20260507182119 | 64 | 152 | 4.3 | 7.0 | 0.00 | 0.00 | 0.00 | 71 | 1008.6 |
| 20260507181639 | 64 | 117 | 1.7 | 7.0 | 0.00 | 0.00 | 0.00 | 71 | 1008.7 |
| 20260507181159 | 64 | 111 | 2.6 | 5.2 | 0.00 | 0.00 | 0.00 | 72 | 1008.7 |
| 20260507180714 | 65 | 133 | 0.0 | 5.2 | 0.00 | 0.00 | 0.00 | 72 | 1008.7 |
| 20260507180259 | 64 | 111 | 4.3 | 8.7 | 0.00 | 0.00 | 0.00 | 72 | 1008.7 |
| 20260507175814 | 65 | 137 | 3.5 | 7.8 | 0.00 | 0.00 | 0.00 | 72 | 1008.5 |
| 20260507175349 | 65 | 127 | 2.6 | 7.0 | 0.00 | 0.00 | 0.00 | 72 | 1008.7 |
| 20260507174924 | 65 | 76 | 1.7 | 4.3 | 0.00 | 0.00 | 0.00 | 71 | 1008.5 |
| 20260507174514 | 65 | 175 | 3.5 | 5.2 | 0.00 | 0.00 | 0.00 | 72 | 1008.7 |
| 20260507174024 | 65 | 95 | 5.2 | 7.8 | 0.00 | 0.00 | 0.00 | 73 | 1008.2 |
| 20260507173529 | 65 | 154 | 3.5 | 7.8 | 0.00 | 0.00 | 0.00 | 72 | 1008.6 |
| 20260507173104 | 65 | 102 | 1.7 | 7.8 | 0.00 | 0.00 | 0.00 | 73 | 1008.5 |
| 20260507172649 | 64 | 160 | 4.3 | 8.7 | 0.00 | 0.00 | 0.00 | 75 | 1008.5 |
| 20260507172249 | 65 | 147 | 1.7 | 7.0 | 0.00 | 0.00 | 0.00 | 75 | 1008.5 |
| 20260507171804 | 65 | 160 | 3.5 | 7.8 | 0.00 | 0.00 | 0.00 | 76 | 1008.1 |
| 20260507171316 | 65 | 133 | 1.7 | 8.7 | 0.00 | 0.00 | 0.00 | 75 | 1008.1 |
| 20260507170839 | 66 | 75 | 1.7 | 7.0 | 0.00 | 0.00 | 0.00 | 74 | 1008.3 |
| 20260507170411 | 65 | 124 | 0.9 | 5.2 | 0.00 | 0.00 | 0.00 | 76 | 1008.2 |
| 20260507170009 | 64 | 140 | 2.6 | 7.0 | 0.00 | 0.00 | 0.00 | 75 | 1008.3 |
| 20260507165549 | 65 | 151 | 7.0 | 11.3 | 0.00 | 0.00 | 0.00 | 74 | 1008.2 |
| 20260507165134 | 65 | 119 | 1.7 | 7.0 | 0.00 | 0.00 | 0.00 | 73 | 1008.1 |
| 20260507164639 | 65 | 114 | 7.0 | 15.6 | 0.00 | 0.00 | 0.00 | 73 | 1008.2 |
| 20260507164219 | 65 | 154 | 8.7 | 10.4 | 0.00 | 0.00 | 0.00 | 72 | 1008.1 |
| 20260507163744 | 65 | 139 | 3.5 | 8.7 | 0.00 | 0.00 | 0.00 | 73 | 1008.1 |
| 20260507163249 | 65 | 160 | 5.2 | 7.8 | 0.00 | 0.00 | 0.00 | 73 | 1008.1 |
| 20260507162838 | 65 | 96 | 5.2 | 8.7 | 0.00 | 0.00 | 0.00 | 72 | 1008.0 |
| 20260507162424 | 65 | 156 | 5.2 | 7.8 | 0.00 | 0.00 | 0.00 | 72 | 1008.2 |
| 20260507162004 | 65 | 151 | 2.6 | 8.7 | 0.00 | 0.00 | 0.00 | 73 | 1008.1 |
| 20260507161514 | 66 | 139 | 0.9 | 5.2 | 0.00 | 0.00 | 0.00 | 70 | 1008.2 |
| 20260507161044 | 66 | 115 | 1.7 | 4.3 | 0.00 | 0.00 | 0.00 | 71 | 1008.2 |
| 20260507160544 | 65 | 132 | 4.3 | 8.7 | 0.00 | 0.00 | 0.00 | 71 | 1008.2 |
| 20260507160139 | 65 | 119 | 5.2 | 7.8 | 0.00 | 0.00 | 0.00 | 72 | 1008.2 |
| 20260507155705 | 65 | 157 | 3.5 | 8.7 | 0.00 | 0.00 | 0.00 | 71 | 1008.2 |
| 20260507155224 | 65 | 152 | 3.5 | 8.7 | 0.00 | 0.00 | 0.00 | 71 | 1008.5 |
| 20260507154803 | 65 | 114 | 6.1 | 8.7 | 0.00 | 0.00 | 0.00 | 70 | 1008.3 |
| 20260507154309 | 65 | 127 | 1.7 | 7.0 | 0.00 | 0.00 | 0.00 | 70 | 1008.5 |
| 20260507153839 | 66 | 107 | 5.2 | 7.8 | 0.00 | 0.00 | 0.00 | 69 | 1008.5 |
| 20260507153414 | 66 | 147 | 6.1 | 7.8 | 0.00 | 0.00 | 0.00 | 68 | 1008.5 |
| 20260507152954 | 65 | 105 | 1.7 | 8.7 | 0.00 | 0.00 | 0.00 | 69 | 1008.6 |
| 20260507152554 | 66 | 112 | 3.5 | 8.7 | 0.00 | 0.00 | 0.00 | 69 | 1008.6 |
| 20260507152139 | 66 | 122 | 1.7 | 5.2 | 0.00 | 0.00 | 0.00 | 67 | 1008.6 |
| 20260507151644 | 65 | 80 | 3.5 | 7.8 | 0.00 | 0.00 | 0.00 | 70 | 1008.7 |
| 20260507151244 | 65 | 100 | 4.3 | 8.7 | 0.00 | 0.00 | 0.00 | 71 | 1008.5 |
| 20260507150824 | 66 | 119 | 4.3 | 7.0 | 0.00 | 0.00 | 0.00 | 67 | 1008.6 |
| 20260507150409 | 66 | 111 | 5.2 | 5.2 | 0.00 | 0.00 | 0.00 | 67 | 1008.6 |
| 20260507145924 | 65 | 116 | 5.2 | 7.8 | 0.00 | 0.00 | 0.00 | 68 | 1008.7 |
| 20260507145451 | 64 | 139 | 4.3 | 7.8 | 0.00 | 0.00 | 0.00 | 71 | 1008.7 |
| 20260507145024 | 65 | 145 | 7.0 | 9.6 | 0.00 | 0.00 | 0.00 | 71 | 1008.6 |
| 20260507144554 | 65 | 107 | 5.2 | 7.0 | 0.00 | 0.00 | 0.00 | 71 | 1008.7 |
| 20260507144131 | 65 | 98 | 2.6 | 8.7 | 0.00 | 0.00 | 0.00 | 72 | 1008.8 |
| 20260507143654 | 65 | 131 | 4.3 | 7.8 | 0.00 | 0.00 | 0.00 | 73 | 1008.8 |
| 20260507143219 | 66 | 98 | 2.6 | 7.8 | 0.00 | 0.00 | 0.00 | 73 | 1009.0 |
| 20260507142729 | 66 | 121 | 4.3 | 5.2 | 0.00 | 0.00 | 0.00 | 72 | 1008.9 |
| 20260507142234 | 65 | 123 | 6.1 | 8.7 | 0.00 | 0.00 | 0.00 | 75 | 1009.0 |
| 20260507141754 | 65 | 153 | 4.3 | 7.8 | 0.00 | 0.00 | 0.00 | 75 | 1008.9 |
| 20260507141324 | 64 | 93 | 5.2 | 7.8 | 0.00 | 0.00 | 0.00 | 76 | 1009.0 |
| 20260507140909 | 65 | 145 | 6.1 | 9.6 | 0.00 | 0.00 | 0.00 | 74 | 1009.1 |
| 20260507140431 | 65 | 137 | 2.6 | 5.2 | 0.00 | 0.00 | 0.00 | 75 | 1009.1 |
| 20260507135939 | 66 | 128 | 4.3 | 8.7 | 0.00 | 0.00 | 0.00 | 74 | 1009.1 |
| 20260507135439 | 66 | 144 | 1.7 | 7.0 | 0.00 | 0.00 | 0.00 | 73 | 1009.3 |
| 20260507135033 | 66 | 130 | 3.5 | 5.2 | 0.00 | 0.00 | 0.00 | 73 | 1009.1 |
| 20260507134549 | 67 | 125 | 4.3 | 7.0 | 0.00 | 0.00 | 0.00 | 71 | 1009.4 |
| 20260507134054 | 66 | 63 | 5.2 | 8.7 | 0.00 | 0.00 | 0.00 | 73 | 1009.5 |
| 20260507133126 | 65 | 144 | 3.5 | 8.7 | 0.00 | 0.00 | 0.00 | 61 | 1009.5 |
| 20260507132704 | 64 | 138 | 6.1 | 8.7 | 0.00 | 0.00 | 0.00 | 62 | 1009.6 |
| 20260507132244 | 64 | 141 | 3.5 | 5.2 | 0.00 | 0.00 | 0.00 | 75 | 1009.7 |
| 20260507131824 | 65 | 136 | 4.3 | 7.8 | 0.00 | 0.00 | 0.00 | 75 | 1009.8 |
| 20260507131334 | 67 | 101 | 2.6 | 7.8 | 0.00 | 0.00 | 0.00 | 73 | 1009.5 |
| 20260507130909 | 68 | 63 | 3.5 | 5.2 | 0.00 | 0.00 | 0.00 | 66 | 1009.6 |
| 20260507130447 | 67 | 164 | 3.5 | 5.2 | 0.00 | 0.00 | 0.00 | 67 | 1009.7 |
| 20260507125949 | 66 | 164 | 3.5 | 9.6 | 0.00 | 0.00 | 0.00 | 70 | 1009.7 |
| 20260507125534 | 66 | 152 | 3.5 | 7.8 | 0.00 | 0.00 | 0.00 | 71 | 1009.5 |
| 20260507125109 | 66 | 112 | 2.6 | 8.7 | 0.00 | 0.00 | 0.00 | 72 | 1009.5 |
| 20260507124624 | 66 | 145 | 5.2 | 7.8 | 0.00 | 0.00 | 0.00 | 73 | 1009.8 |
| 20260507124149 | 66 | 153 | 2.6 | 5.2 | 0.00 | 0.00 | 0.00 | 73 | 1009.8 |
| 20260507123659 | 67 | 140 | 2.6 | 7.0 | 0.00 | 0.00 | 0.00 | 73 | 1009.8 |
| 20260507123204 | 67 | 215 | 2.6 | 8.7 | 0.00 | 0.00 | 0.00 | 73 | 1010.0 |
| 20260507122729 | 66 | 134 | 1.7 | 5.2 | 0.00 | 0.00 | 0.00 | 75 | 1010.1 |
| 20260507122324 | 65 | 155 | 6.1 | 13.0 | 0.00 | 0.00 | 0.00 | 76 | 1010.0 |
| 20260507121824 | 68 | 127 | 2.6 | 4.3 | 0.00 | 0.00 | 0.00 | 71 | 1010.0 |
| 20260507121408 | 67 | 140 | 1.7 | 4.3 | 0.00 | 0.00 | 0.00 | 72 | 1009.9 |
| 20260507120919 | 66 | 164 | 5.2 | 10.4 | 0.00 | 0.00 | 0.00 | 74 | 1009.9 |
| 20260507120454 | 65 | 172 | 5.2 | 12.2 | 0.00 | 0.00 | 0.00 | 74 | 1010.1 |
| 20260507120017 | 66 | 147 | 8.7 | 11.3 | 0.00 | 0.00 | 0.00 | 72 | 1010.0 |
| 20260507115524 | 66 | 116 | 2.6 | 9.6 | 0.00 | 0.00 | 0.00 | 72 | 1010.0 |
| 20260507115047 | 66 | 176 | 7.0 | 10.4 | 0.00 | 0.00 | 0.00 | 71 | 1010.0 |
| 20260507114619 | 66 | 152 | 4.3 | 10.4 | 0.00 | 0.00 | 0.00 | 73 | 1009.9 |
| 20260507114119 | 66 | 132 | 4.3 | 8.7 | 0.00 | 0.00 | 0.00 | 71 | 1009.8 |
| 20260507113619 | 66 | 151 | 10.4 | 13.0 | 0.00 | 0.00 | 0.00 | 72 | 1009.7 |
| 20260507113155 | 66 | 150 | 2.6 | 9.6 | 0.00 | 0.00 | 0.00 | 72 | 1009.9 |
| 20260507112704 | 66 | 126 | 4.3 | 12.2 | 0.00 | 0.00 | 0.00 | 72 | 1009.8 |
| 20260507112254 | 67 | 181 | 5.2 | 10.4 | 0.00 | 0.00 | 0.00 | 71 | 1009.7 |
| 20260507111809 | 67 | 169 | 3.5 | 8.7 | 0.00 | 0.00 | 0.00 | 72 | 1009.7 |
| 20260507111309 | 67 | 144 | 8.7 | 9.6 | 0.00 | 0.00 | 0.00 | 73 | 1009.7 |
| 20260507110819 | 67 | 139 | 8.7 | 12.2 | 0.00 | 0.00 | 0.00 | 72 | 1009.7 |
| 20260507110414 | 67 | 151 | 6.1 | 9.6 | 0.00 | 0.00 | 0.00 | 74 | 1009.8 |
| 20260507105949 | 67 | 132 | 6.1 | 11.3 | 0.00 | 0.00 | 0.00 | 73 | 1009.9 |
| 20260507105539 | 67 | 164 | 5.2 | 9.6 | 0.00 | 0.00 | 0.00 | 73 | 1009.8 |
| 20260507105039 | 66 | 181 | 3.5 | 9.6 | 0.00 | 0.00 | 0.00 | 76 | 1009.8 |
| 20260507104614 | 65 | 130 | 11.3 | 13.0 | 0.00 | 0.00 | 0.00 | 78 | 1009.8 |
| 20260507104149 | 65 | 149 | 9.6 | 12.2 | 0.00 | 0.00 | 0.00 | 80 | 1009.9 |
| 20260507103649 | 65 | 133 | 4.3 | 10.4 | 0.00 | 0.00 | 0.00 | 84 | 1009.5 |
| 20260507103214 | 66 | 171 | 7.0 | 10.4 | 0.00 | 0.00 | 0.00 | 84 | 1009.9 |
| 20260507102804 | 65 | 117 | 1.7 | 7.0 | 0.00 | 0.00 | 0.00 | 86 | 1009.7 |